www.pogodaiklimat.ru

Погода и климат >> Архив погоды >> Сирия >> Латакия


ПОГОДА в Латакии

  • Прогноз погоды в Латакии
  • Монитор погоды в Латакии

АРХИВ ПОГОДЫ в Латакии

Время (UTC), дата Ветер
(напр.,м/с)
 
Видим.   Явления Облачность Т
(С)
Тd
(С)
f
(%)
Тe
(С)
Тes
(С)
Комфортность P
(гПа)
Po
(гПа)
Тmin
(С)
Tmax
(С)
R
(мм)
R24
(мм)
S
(см)
09 16.08 Ю 3 15 км 6/6 900 м
[Cu med, cong]
+30.6 +23.7 67 +42 +48 опасность
перегрева
1007.6 1006.8
12 16.08 ЮЗ 1 15 км 3/3 900 м
[Cu med, cong]
+31.0 0.0 14 +28 +39 жарко 1007.1 1006.3
15 16.08 Ю 1 15 км ясно +29.4 +21.1 61 +37 +39 очень
душно
1006.1 1005.3
18 16.08 штиль 0 15 км 4/4 900 м
[Cu med, cong]
+28.0 0.0 16 +26 +26 жарко 1007.0 1006.2 +31.7
21 16.08 штиль 0 15 км 3/3 900 м
[Cu med, cong]
+27.8 +22.8 74 +37 +37 очень
душно
1007.0 1006.2
03 17.08 штиль 0 15 км 9/9 900 м
[Cu Sc]
+26.2 +20.8 72 +33 +33 очень
душно
1006.2 1005.4
09 17.08 Ю 5 15 км 8/8 900 м
[Cu Sc]
+30.0 +25.3 76 +44 +46 опасность
перегрева
1007.1 1006.3
12 17.08 Ю 4 15 км 5/5 900 м
[Cu med, cong]
+30.4 0.0 14 +27 +32 жарко 1006.5 1005.7
15 17.08 Ю 3 15 км 5/5 900 м
[Cu med, cong]
+29.4 +23.6 71 +40 +41 очень
душно
1005.5 1004.7
18 17.08 Ю 4 15 км 5/5 900 м
[Cu med, cong]
+28.2 0.0 16 +26 +26 жарко 1005.3 1004.5 +31.4
00 18.08 Ю 1 15 км 6/6 900 м
[Cu med, cong]
+28.0 0.0 16 +26 +26 жарко 1004.5 1003.7
06 18.08 Ю 7 15 км 6/6 900 м
[Cu med, cong]
1004.0 1003.2 +28.0
09 18.08 Ю 6 15 км 6/6 900 м
[Cu med, cong]
+30.3 +25 +28 комфорт 1004.9 1004.1
12 18.08 Ю 4 15 км 4/4 900 м
[Cu med, cong]
1004.9 1004.1
15 18.08 Ю 2 15 км 5/5
[Cu med, cong]
+29.4 +23.5 71 +40 +41 очень
душно
1004.9 1004.1
18 18.08 ЮВ 2 15 км 5/5 900 м
[Cu med, cong]
+27.8 0.0 16 +25 +25 комфорт 1004.9 1004.1 +31.0
21 18.08 н/о
00 19.08 штиль 0 15 км 4/4 900 м
[Cu med, cong]
+26.9 0.0 17 +25 +25 комфорт 1004.9 1004.1
03 19.08 штиль 0 15 км 5/5 900 м
[Cu med, cong]
+25.0 +20.2 75 +31 +31 очень
душно
1006.3 1005.5
09 19.08 ЮВ 1 15 км 3/3 900 м
[Cu med, cong]
+30.5 +20.5 55 +37 +52 опасность
солнечного
удара
1008.0 1007.2
12 19.08 Ю 1 15 км ясно +30.9 +20.9 55 +38 +53 опасность
солнечного
удара
1007.7 1006.9
21 19.08 штиль 0 15 км 3/3 900 м
[Cu med, cong]
+27.2 +21.5 71 +35 +35 очень
душно
1009.2 1008.4
06 20.08 штиль 0 15 км 3/3 900 м
[Cu med, cong]
+27.6 0.0 17 +25 +33 комфорт 1009.5 1008.7 +24.0
09 20.08 Ю 2 15 км 3/3 900 м
[Cu med, cong]
+30.0 +20.1 55 +36 +49 очень
душно
1010.1 1009.3
12 20.08 Ю 1 15 км 3/3 900 м
[Cu med, cong]
+30.4 0.0 14 +27 +38 жарко 1009.7 1008.9
18 20.08 ЮВ 1 15 км 3/3 900 м
[Cu med, cong]
+28.2 0.0 16 +26 +26 жарко 1009.7 1008.9 +31.0
21 20.08 н/о
00 21.08 ЮВ 1 15 км ясно +27.6 0.0 17 +25 +25 комфорт 1009.4 1008.6
03 21.08 штиль 0 15 км 3/3 900 м
[Cu med, cong]
+26.8 +22.4 77 +35 +35 очень
душно
1009.2 1008.4
06 21.08 ЮВ 3 15 км 5/5 900 м
[Cu med, cong]
+29.2 0.0 15 +27 +30 жарко 1010.0 1009.2 +25.4
09 21.08 Ю 2 15 км 5/5 900 м
[Cu med, cong]
+30.6 +22.5 62 +40 +49 очень
душно
1010.8 1010.0
12 21.08 Ю 2 15 км 5/5 900 м
[Cu med, cong]
+31.2 0.0 13 +28 +34 жарко 1010.1 1009.3
15 21.08 ЮВ 1 15 км 4/4 900 м
[Cu med, cong]
+29.6 +22.9 67 +39 +40 очень
душно
1009.7 1008.9
18 21.08 штиль 0 15 км ясно +28.0 0.0 16 +26 +26 жарко 1009.5 1008.7 +31.6
21 21.08 н/о
00 22.08 штиль 0 15 км 5/5 900 м
[Cu med, cong]
+26.0 0.0 18 +24 +24 комфорт 1009.3 1008.5
03 22.08 штиль 0 15 км 5/5 900 м
[Cu med, cong]
+25.0 +18.4 67 +30 +30 душно 1008.8 1008.0
06 22.08 В 1 15 км 6/6 900 м
[Cu med, cong]
+28.6 0.0 16 +26 +30 жарко 1009.1 1008.3 +24.6
09 22.08 ЮВ 1 15 км 4/4 900 м
[Cu med, cong]
+31.0 +23.6 65 +42 +55 опасность
перегрева
1008.9 1008.1
12 22.08 штиль 0 15 км 4/4 900 м
[Cu med, cong]
+31.4 0.0 13 +28 +39 жарко 1008.5 1007.7
18 22.08 штиль 0 15 км 3/3 900 м
[Cu med, cong]
+28.4 0.0 16 +26 +26 жарко 1007.9 1007.1 +31.6
21 22.08 штиль 0 15 км 3/3 900 м
[Cu med, cong]
+27.4 +23.4 79 +37 +37 очень
душно
1006.9 1006.1
00 23.08 штиль 0 15 км 3/3 900 м
[Cu med, cong]
+26.1 0.0 18 +24 +24 комфорт 1007.2 1006.4
03 23.08 штиль 0 15 км 3/3 900 м
[Cu med, cong]
+24.6 +20.7 79 +31 +31 очень
душно
1006.9 1006.1
06 23.08 штиль 0 15 км ясно +28.0 0.0 16 +26 +35 жарко 1007.5 1006.7 +24.6

 

Местоположение метеостанции Латакия (Сирия): широта 35.53 долгота 35.77 высота над уровнем моря 7 м.

В архиве по умолчанию представлена погода в Латакии за последнюю неделю. Архивные данные за месяц целиком и за предыдущие месяцы, начиная с января 2011 года, Вы можете получить, выбрав интересующий диапазон дат из раскрывающегося списка и нажав кнопку "Ввод!".


*Определитесь, кто Вы:
робот инопланетянин человек

Внимание! Время в таблицах - всемирное. Для получения местного времени необходимо прибавить поправку, которая равна 2 ч.

Смотрите также архив погоды в соседних городах и на ближайших метеорологических станциях:

Погода в Аэропорту Басиля Эль-Асада (Сирия) (20 км)
Погода в Сафире (Сирия) (85 км)
Погода в Хаме (Сирия) (100 км)
Погода в Триполи (Ливан) (121 км)
Погода в Искендеруне (Турция) (122 км)
Погода в Ризокарпасо (Кипр) (126 км)
Погода в Алеппо (Сирия) (148 км)
Погода в Гиалусе (Кипр) (158 км)
Погода в Инджирлике (Турция) (166 км)
Погода в Адане (Турция) (167 км)

Пояснения к столбцам:

Ветер - указаны скорость ветра в м/с - средняя за 10 мин, порывы в срок и между сроками (в фигурных скобках) и направление, откуда дует ветер: С - северный, СВ - северо-восточный, В - восточный, ЮВ - юго-восточный, Ю - южный, ЮЗ - юго-западный, З - западный, СЗ - северо-западный.
Видимость - горизонтальная дальность видимости в метрах или километрах. При видимости от 1 до 10 км при отсутствии осадков обычно наблюдается дымка, при ухудшении видимости до 1 км и менее - туман. В сухую погоду видимость может ухудшаться дымом, пылью или мглою.
Явления - указаны атмосферные явления, наблюдавшиеся в срок или в последний час перед сроком; фигурными скобками обозначены явления, наблюдавшиеся между сроками (за 1-3 часа до срока); квадратными скобками обозначены град или гололедные отложения с указанием их диаметра в мм.
Облачность - указаны через наклонную черту общая и нижняя облачность в баллах и высота нижней границы облаков в метрах; квадратными скобками обозначены формы облаков: Ci - перистые, Cs - перисто-слоистые, Cc - перисто-кучевые, Ac - высококучевые, As - высокослоистые, Sc - слоисто-кучевые, Ns - слоисто-дождевые, Cu - кучевые, Cb - кучево-дождевые. Подробнее классификацию облаков см. в Атласе облаков (PDF).
T - Температура воздуха - температура, измеренная на высоте 2 м над землей.
Td - Температура точки росы - температура, при понижении до которой содержащийся в воздухе водяной пар достигнет насыщения.
f - Относительная влажность воздуха - влажноcть воздуха, измеренная на высоте 2 м над землей.
Te - Эффективная температура - температура, которую ощущает одетый по сезону человек в тени. Характеристика душности погоды. При расчете учитывается влияние влажности воздуха и скорости ветра на теплоощущения человека.
Tes - Эффективная температура на солнце - температура, которую ощущает человек, с поправкой на солнечный нагрев. Характеристика знойности погоды. Зависит от высоты солнца над горизонтом, облачности и скорости ветра. Ночью, в пасмурную погоду, а также при ветре 12 м/с и более поправка равна нулю.
P - Атмосферное давление - приведенное к уровню моря атмосферное давление.
Po - Атмосферное давление - измеренное на уровне метеостанции атмосферное давление.
Tmin - Минимальная температура - минимум температуры воздуха на высоте 2 м над землей.
Tmax - Максимальная температура - максимум температуры воздуха на высоте 2 м над землей.
R - Количество осадков - Количество выпавших осадков за период времени, мм. При наведении курсора мыши на число - период времени, за который выпало указанное количество осадков.
R24 - Количество осадков - Количество выпавших осадков за 24 часа, мм.
S - Снежный покров - Высота снежного покрова, см. При наведении курсора мыши на число - состояние снежного покрова и степень покрытия местности в баллах.